Tracking 28790 objects as of 19-Apr-2024
HD Live streaming from Space Station
objects crossing your sky now

STARLINK-5041

Track STARLINK-5041 now!
10-day predictions
STARLINK-5041 is classified as:


NORAD ID: 53891
Int'l Code: 2022-119F
Perigee: 545.7 km
Apogee: 548.1 km
Inclination: 53.2 °
Period: 95.4 minutes
Semi major axis: 6917 km
RCS: Unknown
Launch date: September 24, 2022
Source: United States (US)
Launch site: AIR FORCE EASTERN TEST RANGE (AFETR)
Your satellite tracking list
Your tracking list is empty




NASA's NSSDC Master Catalog

Two Line Element Set (TLE):
1 53891U 22119F   24109.46876966 -.00001131  00000-0 -52971-4 0  9995
2 53891  53.2171 182.7200 0001738  88.1780 271.9411 15.08833514 87488
Source of the keplerian elements: AFSPC